Content
SEND FEEDBACK

Daily
Averages
Monthly
Summary
United States of America

RAPID CITY, SOUTH DAKOTA


Home > North America > United States > South Dakota
Elevation: 963 meters     Latitude: 44 03N     Longitude: 103 04W

WEATHER
 
SELECT A DAY
Number of Records: 198,139;   Date Range: 1/1/95 - 4/18/14
 
SHARE

PRINT THIS DATA

[ ← Previous Day ]
WEATHER ALMANAC - 31 JANUARY, 2013
[ Next Day → ]
[ °F ]   °C
Weather ElementAverageHighLow
Temperature-14 °C-10 °C (12:11 am) (7:52 am)
Dewpoint-17.1 °C-12 °C (12:11 am)-21.7 °C (9:52 am)
Humidity77.8 %86 % (12:11 am)64 % (2:52 pm)
Barometer1021 hPa1030.5 hPa (10:52 am)1011.2 hPa (12:11 am)
Wind Speed30.7 km/h50.1 km/h (12:11 am)
Wind Gust68.6 km/h (12:52 am)
Weather ElementAverage
Visibility9.3 km
Wind DirectionWNW (285.6 °)

Weather ElementTotal
Precipitation0.76 mm
Heating Degree Days32.2 (Base 18.3)
Averaged from 41 records on 31 January, 2013
WEATHER CONDITIONS BREAKOUT
WIND DIRECTION BREAKOUT
WEATHER BY HOUR - 31 JANUARY, 2013
[ °F ]   °C
Local TimeTemperatureDewpointHumidityBarometerVisibilityWind DirectionWind SpeedGust SpeedPrecipitationEventsConditions
12:11 AM-10 °C-12 °C86 %1011.2 hPa3.2 kmNNW (340°)50.1 km/h62.9 km/h0 mmSnowLight Snow
12:25 AM-10 °C-13 °C79 %1011.5 hPa2.4 kmNorth (350°)42.6 km/h62.9 km/h0.25 mmSnowLight Snow
12:36 AM-11 °C-13 °C85 %1011.9 hPa4 kmNNW (340°)40.7 km/h62.9 km/h0.25 mmSnowLight Snow
12:52 AM-11.1 °C-13.3 °C84 %1017.9 hPa4 kmNorth (350°)50.1 km/h68.6 km/h0.25 mmSnowLight Snow
1:06 AM-11 °C-14 °C79 %1011.9 hPa4.8 kmNorth (350°)48.1 km/h61.2 km/h0 mmSnowLight Snow
1:16 AM-11 °C-14 °C79 %1012.2 hPa2.9 kmNorth (350°)44.4 km/h61.2 km/h0 mmSnowLight Snow
1:28 AM-12 °C-14 °C85 %1012.9 hPa4 kmNNW (340°)46.3 km/h55.5 km/h0 mmSnowLight Snow
1:52 AM-11.7 °C-15 °C77 %1019 hPa6.4 kmNNW (340°)40.7 km/h62.9 km/h0 mmSnowLight Snow
2:00 AM-12 °C-15 °C79 %1013.5 hPa11.3 kmNorth (350°)42.6 km/h51.8 km/h0 mmSnowLight Snow
2:30 AM-13 °C-15 °C85 %1013.5 hPa2.9 kmNorth (350°)42.6 km/h57.5 km/h0 mmSnowLight Snow
2:44 AM-13 °C-16 °C79 %1013.9 hPa4 kmNorth (350°)40.7 km/h53.8 km/h0 mmSnowLight Snow
2:52 AM-13.3 °C-16.1 °C80 %1020.3 hPa6.4 kmNNW (340°)38.9 km/h50.1 km/h0 mmSnowLight Snow
3:06 AM-13 °C-16 °C79 %1014.6 hPa4 kmNorth (350°)40.7 km/h53.8 km/h0 mmSnowLight Snow
3:28 AM-13 °C-16 °C79 %1014.9 hPa3.2 kmNorth (350°)50.1 km/h62.9 km/h0 mmSnowLight Snow
3:35 AM-14 °C-17 °C79 %1014.9 hPa1.9 kmNNW (340°)46.3 km/h62.9 km/h0 mmSnowLight Snow
3:52 AM-14.4 °C-17.2 °C80 %1021.7 hPa2.9 kmNNW (340°)44.4 km/h59.2 km/h0 mmSnowLight Snow
4:11 AM-14 °C-17 °C79 %1015.6 hPa3.2 kmNNW (340°)42.6 km/h59.2 km/h0 mmSnowLight Snow
4:52 AM-15 °C-17.8 °C80 %1022.7 hPa3.2 kmNorth (350°)42.6 km/h61.2 km/h0 mmSnowLight Snow
5:24 AM-14 °C-17 °C79 %1016.9 hPa3.2 kmNorth (350°)44.4 km/h57.5 km/h0 mmSnowLight Snow
5:34 AM-15 °C-18 °C78 %1017.3 hPa2.9 kmNorth (350°)44.4 km/h59.2 km/h0 mmSnowLight Snow
5:43 AM-15 °C-18 °C78 %1017.6 hPa4 kmNorth (350°)40.7 km/h53.8 km/h0 mmSnowLight Snow
5:52 AM-15 °C-17.8 °C80 %1024.4 hPa4 kmNNW (340°)38.9 km/h51.8 km/h0 mmSnowLight Snow
5:56 AM-15 °C-18 °C78 %1017.9 hPa4.8 kmNNW (340°)38.9 km/h51.8 km/h0 mmSnowLight Snow
6:52 AM-16.7 °C-19.4 °C80 %1025.7 hPa12.9 kmNorth (350°)37 km/h0 mmOvercast
7:52 AM-17.8 °C-21.1 °C76 %1027.4 hPa16.1 kmNorth (360°)37 km/h50.1 km/hOvercast
8:52 AM-17.2 °C-21.1 °C72 %1028.4 hPa16.1 kmNorth (360°)38.9 km/hOvercast
9:52 AM-17.8 °C-21.7 °C72 %1029.8 hPa16.1 kmNorth (360°)20.4 km/h35.2 km/hMostly Cloudy
10:52 AM-17.2 °C-21.1 °C72 %1030.5 hPa16.1 kmNorth (10°)16.7 km/hMostly Cloudy
11:52 AM-15.6 °C-20 °C70 %1029.1 hPa16.1 kmNorth (360°)16.7 km/hOvercast
12:52 PM-14.4 °C-19.4 °C67 %1028.4 hPa16.1 kmNorth (360°)18.5 km/hOvercast
1:52 PM-13.9 °C-18.9 °C67 %1028.1 hPa16.1 kmNorth (360°)7.4 km/hOvercast
2:52 PM-13.3 °C-18.9 °C64 %1028.1 hPa16.1 kmCalmOvercast
3:52 PM-13.9 °C-18.3 °C70 %1027.8 hPa16.1 kmSSE (160°)7.4 km/hOvercast
4:52 PM-15.6 °C-18.9 °C76 %1027.8 hPa16.1 kmSE (130°)7.4 km/hScattered Clouds
5:52 PM-15 °C-17.8 °C80 %1027.8 hPa16.1 kmSE (130°)7.4 km/hOvercast
6:52 PM-15 °C-18.3 °C76 %1027.4 hPa16.1 kmSE (140°)7.4 km/hOvercast
7:52 PM-14.4 °C-17.8 °C76 %1027.4 hPa16.1 kmSE (140°)9.3 km/hOvercast
8:52 PM-14.4 °C-17.2 °C80 %1026.8 hPa16.1 kmSE (130°)7.4 km/hOvercast
9:52 PM-16.1 °C-18.3 °C84 %1026.4 hPa16.1 kmSE (140°)9.3 km/hOvercast
10:52 PM-14.4 °C-17.2 °C80 %1025.4 hPa16.1 kmSE (140°)5.6 km/hOvercast
11:52 PM-13.9 °C-16.7 °C80 %1024.4 hPa16.1 kmSE (130°)5.6 km/hOvercast
Hourly data recorded from KRAP, located 1.45 kilometers away from Rapid City, South Dakota







STORIES FROM OUR PARTNERS